Content
SEND FEEDBACK

Daily
Averages
Monthly
Summary
Romania

PLOIESTI, ROMANIA


Home > Europe > Romania
Elevation: 584 feet     Latitude: 44 57N     Longitude: 026 00E

WEATHER
 
SELECT A DAY
Number of Records: 277,785;   Date Range: 7/1/96 - 7/20/14
 
SHARE

PRINT THIS DATA

[ ← Previous Day ]
WEATHER ALMANAC - JANUARY 23, 2013
[ Next Day → ]
[ °C ]   °F
Weather ElementAverageHighLow
Temperature40.4 °F50 °F (1:30 pm)32 °F (8:00 am)
Dewpoint36.4 °F42.8 °F (12:00 pm)32 °F (7:00 am)
Humidity86.7 %100 % (3:30 am)62 % (1:30 pm)
Barometer29.72 in29.86 in (11:30 pm)29.62 in (12:30 am)
Wind Speed7.4 mph20.7 mph (3:00 pm)
Weather ElementAverage
Visibility2.4 mi
Wind DirectionS (177.9 °)

Weather ElementTotal
Precipitation---
Heating Degree Days24 (Base 65)
Averaged from 47 records on January 23, 2013
WEATHER CONDITIONS BREAKOUT
WIND DIRECTION BREAKOUT
WEATHER BY HOUR - JANUARY 23, 2013
[ °C ]   °F
Local TimeTemperatureDewpointHumidityBarometerVisibilityWind DirectionWind SpeedGust SpeedPrecipitationEventsConditions
12:30 AM41.0 °F39.2 °F93 %29.62 inWSW (240°)5.8 mphClear
1:00 AM41.0 °F39.2 °F93 %29.62 inSW (220°)6.9 mphClear
1:30 AM41.0 °F39.2 °F93 %29.62 inSW (220°)6.9 mphClear
2:00 AM41.0 °F39.2 °F93 %29.62 inSW (230°)8.1 mphClear
2:30 AM41.0 °F39.2 °F93 %29.65 inSW (220°)5.8 mphClear
3:00 AM41.0 °F39.2 °F93 %29.65 in4.3 miWSW (240°)6.9 mphOvercast
3:30 AM39.2 °F39.2 °F100 %29.65 in4.3 miWest (260°)2.3 mphOvercast
4:00 AM39.2 °F39.2 °F100 %29.65 in3.7 miWSW (250°)2.3 mphRainLight Rain
4:30 AM39.2 °F39.2 °F100 %29.65 in3.7 miCalmMostly Cloudy
5:00 AM39.2 °F37.4 °F93 %29.65 in3.7 miVariable2.3 mphScattered Clouds
5:30 AM37.4 °F35.6 °F93 %29.65 in1.9 miENE (60°)4.6 mphScattered Clouds
6:00 AM35.6 °F33.8 °F93 %29.65 in0.9 miENE (60°)3.5 mphMist
6:30 AM33.8 °F33.8 °F100 %29.65 in0.9 miEast (80°)2.3 mphScattered Clouds
7:00 AM33.8 °F32.0 °F93 %29.65 in1.1 miEast (80°)3.5 mphPartly Cloudy
7:30 AM33.8 °F32.0 °F93 %29.68 in0.9 miENE (70°)3.5 mphMist
8:00 AM32.0 °F32.0 °F100 %29.68 in0.7 miENE (70°)2.3 mphMist
8:30 AM32.0 °F32.0 °F100 %29.68 in0.4 miCalmFogFog
9:00 AM33.8 °F32.0 °F93 %29.71 in0.5 miVariable2.3 mphFogFog
9:30 AM33.8 °F33.8 °F100 %29.71 in0.7 miEast (100°)2.3 mphScattered Clouds
10:00 AM35.6 °F35.6 °F100 %29.71 in0.8 miNNE (30°)2.3 mphPartly Cloudy
10:30 AM37.4 °F37.4 °F100 %29.71 in0.8 miCalmPartly Cloudy
11:00 AM41.0 °F39.2 °F93 %29.71 in1.1 miWSW (240°)3.5 mphMist
11:30 AM42.8 °F41.0 °F93 %29.71 in1.9 miWSW (240°)6.9 mphScattered Clouds
12:00 PM44.6 °F42.8 °F93 %29.71 in2.5 miSW (230°)11.5 mphMist
12:30 PM46.4 °F41.0 °F81 %29.71 inWSW (250°)10.4 mphClear
1:00 PM48.2 °F39.2 °F71 %29.71 inWSW (240°)11.5 mphClear
1:30 PM50.0 °F37.4 °F62 %29.71 inWSW (240°)13.8 mphClear
2:00 PM50.0 °F37.4 °F62 %29.71 inWSW (240°)17.3 mphClear
2:30 PM50.0 °F37.4 °F62 %29.71 inSW (220°)17.3 mphClear
3:00 PM50.0 °F37.4 °F62 %29.74 in6.2 miSW (220°)20.7 mphPartly Cloudy
3:30 PM50.0 °F37.4 °F62 %29.74 in6.2 miSW (220°)15.0 mphPartly Cloudy
4:00 PM48.2 °F35.6 °F62 %29.74 in6.2 miSW (220°)16.1 mphPartly Cloudy
4:30 PM48.2 °F35.6 °F62 %29.74 inSW (220°)13.8 mphClear
5:00 PM46.4 °F35.6 °F66 %29.74 inSW (220°)12.7 mphClear
5:30 PM44.6 °F35.6 °F71 %29.77 inSW (220°)12.7 mphClear
6:00 PM42.8 °F37.4 °F81 %29.77 inSW (220°)9.2 mphClear
6:30 PM41.0 °F37.4 °F87 %29.77 inSW (230°)11.5 mphClear
7:00 PM42.8 °F35.6 °F76 %29.80 inWSW (240°)10.4 mphClear
7:30 PM41.0 °F35.6 °F81 %29.80 inSW (230°)6.9 mphClear
8:00 PM41.0 °F33.8 °F76 %29.80 inSW (230°)8.1 mphClear
8:30 PM37.4 °F35.6 °F93 %29.80 inWSW (250°)9.2 mphClear
9:00 PM37.4 °F35.6 °F93 %29.83 inWSW (250°)6.9 mphClear
9:30 PM35.6 °F33.8 °F93 %29.83 inSW (230°)4.6 mphClear
10:00 PM35.6 °F33.8 °F93 %29.83 inWSW (240°)5.8 mphClear
10:30 PM33.8 °F32.0 °F93 %29.83 inSSW (200°)5.8 mphClear
11:00 PM33.8 °F33.8 °F100 %29.83 inSouth (190°)3.5 mphClear
11:30 PM35.6 °F33.8 °F93 %29.86 inSSW (200°)6.9 mphClear
Hourly data recorded from LROP, located miles away from Ploiesti, Romania







STORIES FROM OUR PARTNERS